User: anonymous
Location: Hartman Creek State Park
(44.3257°N, 89.2134°W)
Time: 06:10:53
(UTC-05:00)
Language:

Terra - Orbit

View from above orbital plane
View from above orbital plane
View from above satellite
View from above satellite

Ground track
Ground track

The orbit data is extracted from the following two-line orbital elements,

1 25994U 99068A   14207.17478394 -.00000202  00000-0 -34754-4 0  4660
2 25994 098.2103 281.3701 0001270 103.2175 256.9219 14.57086942776746
Epoch (UTC): 26 July 2014 04:11:41
Eccentricity: 0.0001270
inclination: 98.2103°
perigee height: 702 km
apogee height: 703 km
right ascension of ascending node: 281.3701°
argument of perigee: 103.2175°
revolutions per day: 14.57086942
mean anomaly at epoch: 256.9219°
orbit number at epoch: 77674

The dashed part of the orbit path shows where the satellite is in the earth's shadow,  

DLR